| time (UTC) | temp C | wind direction | speed KPH | gust KPH | rain 1hr cm | rain 24hr cm | rain mn cm | humidity % | barometer mb |
| 20260904170057 | 26 | 321 | 3.2 | 8.0 | 0.00 | 0.00 | 0.00 | 73 | 1014.6 |
| 20260904164600 | 26 | 317 | 1.6 | 11.3 | 0.00 | 0.00 | 0.00 | 75 | 1014.7 |
| 20260904163057 | 26 | 20 | 3.2 | 9.7 | 0.00 | 0.00 | 0.00 | 73 | 1014.9 |
| 20260904161557 | 26 | 330 | 1.6 | 6.4 | 0.00 | 0.00 | 0.00 | 72 | 1014.9 |
| 20260904160053 | 26 | 338 | 3.2 | 8.0 | 0.00 | 0.00 | 0.00 | 72 | 1014.9 |
| 20260904133111 | 24 | 337 | 1.6 | 9.7 | 0.00 | 0.00 | 0.00 | 79 | 1014.7 |
| 20260904131556 | 24 | 330 | 1.6 | 11.3 | 0.00 | 0.00 | 0.00 | 81 | 1014.8 |
| 20260904130106 | 23 | 337 | 3.2 | 8.0 | 0.00 | 0.00 | 0.00 | 81 | 1014.6 |
| 20260904124551 | 23 | 334 | 1.6 | 8.0 | 0.00 | 0.00 | 0.00 | 83 | 1014.7 |
| 20260904123052 | 22 | 0 | 1.6 | 6.4 | 0.00 | 0.00 | 0.00 | 85 | 1014.4 |
| 20260904121555 | 21 | 327 | 3.2 | 6.4 | 0.00 | 0.00 | 0.00 | 87 | 1014.3 |
| 20260904120106 | 21 | 340 | 3.2 | 8.0 | 0.00 | 0.00 | 0.00 | 89 | 1014.4 |
| 20260904114552 | 20 | 336 | 4.8 | 9.7 | 0.00 | 0.00 | 0.00 | 90 | 1014.4 |
| 20260904113049 | 20 | 323 | 3.2 | 8.0 | 0.00 | 0.00 | 0.00 | 90 | 1014.4 |
| 20260904111558 | 20 | 333 | 1.6 | 8.0 | 0.00 | 0.00 | 0.00 | 90 | 1014.3 |
| 20260904110057 | 20 | 342 | 1.6 | 8.0 | 0.00 | 0.00 | 0.00 | 90 | 1014.2 |
| 20260904104552 | 20 | 331 | 3.2 | 12.9 | 0.00 | 0.00 | 0.00 | 90 | 1014.1 |
| 20260904103059 | 20 | 319 | 3.2 | 11.3 | 0.00 | 0.00 | 0.00 | 89 | 1013.9 |
| 20260904101557 | 20 | 340 | 3.2 | 12.9 | 0.00 | 0.00 | 0.00 | 89 | 1013.8 |
| 20260904100056 | 20 | 340 | 3.2 | 11.3 | 0.00 | 0.00 | 0.00 | 88 | 1013.8 |
| 20260904094550 | 20 | 29 | 3.2 | 11.3 | 0.00 | 0.00 | 0.00 | 88 | 1013.8 |
| 20260904093058 | 20 | 317 | 3.2 | 12.9 | 0.00 | 0.00 | 0.00 | 88 | 1013.5 |
| 20260904091554 | 20 | 316 | 4.8 | 16.1 | 0.00 | 0.00 | 0.00 | 88 | 1013.4 |
| 20260904090049 | 20 | 335 | 4.8 | 12.9 | 0.00 | 0.00 | 0.00 | 88 | 1013.3 |
| 20260904084601 | 20 | 336 | 6.4 | 14.5 | 0.00 | 0.00 | 0.00 | 88 | 1013.1 |
| 20260904083054 | 20 | 329 | 6.4 | 16.1 | 0.00 | 0.00 | 0.00 | 87 | 1013.0 |
| 20260904081551 | 20 | 340 | 6.4 | 17.7 | 0.00 | 0.00 | 0.00 | 87 | 1012.9 |
| 20260904080118 | 20 | 340 | 8.0 | 17.7 | 0.00 | 0.00 | 0.00 | 87 | 1012.8 |
| 20260904074557 | 20 | 345 | 9.7 | 19.3 | 0.00 | 0.00 | 0.00 | 86 | 1012.7 |
| 20260904073053 | 21 | 360 | 8.0 | 17.7 | 0.00 | 0.00 | 0.00 | 86 | 1012.7 |
| 20260904071553 | 21 | 340 | 6.4 | 16.1 | 0.00 | 0.00 | 0.00 | 86 | 1012.7 |
| 20260904070057 | 21 | 330 | 6.4 | 17.7 | 0.00 | 0.00 | 0.00 | 85 | 1012.6 |
| 20260904064549 | 21 | 346 | 8.0 | 19.3 | 0.00 | 0.00 | 0.00 | 84 | 1012.5 |
| 20260904063112 | 21 | 348 | 8.0 | 19.3 | 0.00 | 0.00 | 0.00 | 85 | 1012.7 |
| 20260904061549 | 21 | 319 | 8.0 | 16.1 | 0.00 | 0.00 | 0.00 | 86 | 1012.8 |
| 20260904054558 | 21 | 305 | 6.4 | 12.9 | 0.00 | 0.00 | 0.00 | 89 | 1012.8 |
| 20260904053113 | 21 | 0 | 1.6 | 8.0 | 0.00 | 0.00 | 0.00 | 90 | 1013.0 |
| 20260904051551 | 21 | 321 | 4.8 | 12.9 | 0.00 | 0.00 | 0.00 | 89 | 1013.1 |
| 20260904050053 | 21 | 341 | 4.8 | 11.3 | 0.00 | 0.00 | 0.00 | 87 | 1013.2 |
| 20260904044547 | 21 | 329 | 4.8 | 12.9 | 0.00 | 0.00 | 0.00 | 85 | 1013.3 |
| 20260904043100 | 21 | 331 | 4.8 | 11.3 | 0.00 | 0.00 | 0.00 | 85 | 1013.1 |
| 20260904041555 | 21 | 233 | 6.4 | 11.3 | 0.00 | 0.00 | 0.00 | 87 | 1013.0 |
| 20260904040104 | 21 | 244 | 3.2 | 8.0 | 0.00 | 0.00 | 0.00 | 89 | 1012.9 |
| 20260904034602 | 21 | 28 | 3.2 | 8.0 | 0.00 | 0.00 | 0.00 | 89 | 1012.8 |
| 20260904033053 | 21 | 28 | 3.2 | 8.0 | 0.00 | 0.00 | 0.00 | 89 | 1012.6 |
| 20260904031555 | 21 | 28 | 4.8 | 6.4 | 0.00 | 0.00 | 0.00 | 88 | 1012.6 |
| 20260904030059 | 21 | 28 | 3.2 | 6.4 | 0.00 | 0.00 | 0.00 | 87 | 1012.7 |
| 20260904024548 | 21 | 28 | 3.2 | 6.4 | 0.00 | 0.00 | 0.00 | 88 | 1012.9 |
| 20260904023056 | 21 | 28 | 3.2 | 8.0 | 0.00 | 0.00 | 0.00 | 89 | 1012.7 |
| 20260904021558 | 21 | 28 | 3.2 | 6.4 | 0.00 | 0.00 | 0.00 | 89 | 1012.8 |
| 20260904020055 | 21 | 0 | 0.0 | 0.0 | 0.00 | 0.00 | 0.00 | 90 | 1012.9 |
| 20260904014602 | 21 | 0 | 0.0 | 0.0 | 0.00 | 0.00 | 0.00 | 90 | 1013.0 |
| 20260904013107 | 21 | 0 | 0.0 | 0.0 | 0.00 | 0.00 | 0.00 | 89 | 1012.9 |
| 20260904011609 | 21 | 0 | 0.0 | 0.0 | 0.00 | 0.00 | 0.00 | 89 | 1012.7 |
| 20260904010054 | 22 | 0 | 0.0 | 0.0 | 0.00 | 0.00 | 0.00 | 89 | 1012.7 |
| 20260904004550 | 22 | 0 | 0.0 | 0.0 | 0.00 | 0.00 | 0.00 | 88 | 1012.7 |
| 20260904003047 | 22 | 0 | 0.0 | 0.0 | 0.00 | 0.00 | 0.00 | 86 | 1012.6 |
| 20260904001557 | 22 | 0 | 0.0 | 3.2 | 0.00 | 0.00 | 0.00 | 87 | 1012.5 |
| 20260904000053 | 22 | 28 | 4.8 | 8.0 | 0.00 | 0.00 | 0.00 | 87 | 1012.6 |
| 20260903234551 | 22 | 28 | 4.8 | 8.0 | 0.00 | 0.00 | 0.00 | 86 | 1012.4 |
| 20260903233047 | 22 | 28 | 4.8 | 8.0 | 0.00 | 0.00 | 0.00 | 85 | 1012.5 |
| 20260903231549 | 23 | 28 | 3.2 | 6.4 | 0.00 | 0.00 | 0.00 | 85 | 1012.4 |
| 20260903230050 | 23 | 28 | 3.2 | 6.4 | 0.00 | 0.00 | 0.00 | 84 | 1012.4 |
| 20260903224601 | 23 | 28 | 3.2 | 6.4 | 0.00 | 0.00 | 0.00 | 81 | 1012.2 |
| 20260903223053 | 25 | 28 | 3.2 | 6.4 | 0.00 | 0.00 | 0.00 | 79 | 1012.4 |
| 20260903221548 | 25 | 0 | 0.0 | 0.0 | 0.00 | 0.00 | 0.00 | 75 | 1011.9 |
| 20260903220059 | 25 | 0 | 0.0 | 0.0 | 0.00 | 0.00 | 0.00 | 75 | 1012.2 |
| 20260903214605 | 26 | 0 | 0.0 | 0.0 | 0.00 | 0.00 | 0.00 | 75 | 1012.4 |
| 20260903213052 | 26 | 0 | 0.0 | 3.2 | 0.00 | 0.00 | 0.00 | 76 | 1012.4 |
| 20260903211552 | 26 | 0 | 0.0 | 0.0 | 0.00 | 0.00 | 0.00 | 77 | 1012.4 |
| 20260903210140 | 26 | 0 | 0.0 | 3.2 | 0.00 | 0.00 | 0.00 | 76 | 1012.4 |
| 20260903204602 | 27 | 0 | 0.0 | 4.8 | 0.00 | 0.00 | 0.00 | 74 | 1012.7 |
| 20260903203052 | 28 | 28 | 3.2 | 4.8 | 0.00 | 0.00 | 0.00 | 72 | 1012.7 |
| 20260903201548 | 28 | 28 | 3.2 | 6.4 | 0.00 | 0.00 | 0.00 | 73 | 1012.8 |
| 20260903200115 | 28 | 28 | 1.6 | 8.0 | 0.00 | 0.00 | 0.00 | 73 | 1012.8 |
| 20260903194555 | 28 | 21 | 1.6 | 6.4 | 0.00 | 0.00 | 0.00 | 73 | 1012.9 |
| 20260903193057 | 29 | 22 | 4.8 | 11.3 | 0.00 | 0.00 | 0.00 | 71 | 1013.0 |
| 20260903191600 | 30 | 24 | 4.8 | 11.3 | 0.00 | 0.00 | 0.00 | 69 | 1012.8 |
| 20260903190046 | 30 | 22 | 1.6 | 6.4 | 0.00 | 0.00 | 0.00 | 69 | 1013.0 |
| 20260903184558 | 30 | 30 | 0.0 | 8.0 | 0.00 | 0.00 | 0.00 | 70 | 1013.2 |
| 20260903183057 | 30 | 0 | 3.2 | 8.0 | 0.00 | 0.00 | 0.00 | 72 | 1013.2 |
| 20260903181556 | 30 | 350 | 1.6 | 6.4 | 0.00 | 0.00 | 0.00 | 72 | 1013.3 |
| 20260903180058 | 30 | 350 | 1.6 | 6.4 | 0.00 | 0.00 | 0.00 | 74 | 1013.2 |
| 20260903174553 | 29 | 350 | 4.8 | 8.0 | 0.00 | 0.00 | 0.00 | 71 | 1013.4 |
| 20260903173051 | 30 | 350 | 1.6 | 8.0 | 0.00 | 0.00 | 0.00 | 71 | 1013.3 |
| 20260903171612 | 30 | 350 | 3.2 | 8.0 | 0.00 | 0.00 | 0.00 | 70 | 1013.3 |